KLM1757 EHAM-EDDH

Flight info

Callsign KLM1757
Flight time N/A
Altitude 35000
Route ANDIK M105 RIBSO RIBSO7A
Aircraft B738/M-SDE2E3FGHIRWXY/LB1

Departure

Time 2026-04-30 18:26
Airport Amsterdam Airport Schiphol (EHAM)

Arrival

Time N/A
Airport Hamburg Helmut Schmidt Airport (EDDH)
Time Latitude Longitude Altitude Speed Heading
2026-04-30 18:15 52.31074 4.75564 -2 ft 0 kts 148°
2026-04-30 18:19 52.31077 4.75561 -2 ft 2 kts 148°
2026-04-30 18:20 52.31091 4.75546 -2 ft 2 kts 142°
2026-04-30 18:20 52.31102 4.75530 -2 ft 2 kts 136°
2026-04-30 18:20 52.31113 4.75510 -2 ft 2 kts 125°
2026-04-30 18:20 52.31121 4.75487 -2 ft 2 kts 109°
2026-04-30 18:21 52.31125 4.75461 -2 ft 2 kts 88°
2026-04-30 18:21 52.31122 4.75434 -2 ft 2 kts 68°
2026-04-30 18:21 52.31117 4.75418 -2 ft 1 kts 57°
2026-04-30 18:21 52.31117 4.75416 -2 ft 0 kts 57°
2026-04-30 18:23 52.31141 4.75460 -2 ft 11 kts 28°
2026-04-30 18:23 52.31266 4.75458 -2 ft 25 kts 357°
2026-04-30 18:23 52.31448 4.75436 -2 ft 26 kts 351°
2026-04-30 18:24 52.31497 4.75042 -2 ft 21 kts 266°
2026-04-30 18:24 52.31494 4.74756 -2 ft 26 kts 289°
2026-04-30 18:24 52.31644 4.74690 -1 ft 24 kts 39°
2026-04-30 18:25 52.31666 4.74754 -2 ft 1 kts 81°
2026-04-30 18:25 52.31667 4.74762 -2 ft 0 kts 79°
2026-04-30 18:26 52.31684 4.75268 -3 ft 82 kts 87°
2026-04-30 18:26 52.31728 4.76579 9 ft 144 kts 88°
2026-04-30 18:26 52.31807 4.78309 592 ft 157 kts 88°
2026-04-30 18:27 52.31950 4.81492 2642 ft 138 kts 91°
2026-04-30 18:27 52.32002 4.82543 3182 ft 142 kts 91°
2026-04-30 18:28 52.32176 4.86347 3952 ft 198 kts 91°
2026-04-30 18:28 52.32254 4.88748 4237 ft 221 kts 91°
2026-04-30 18:28 52.32395 4.94147 5426 ft 249 kts 91°
2026-04-30 18:29 52.32464 4.96950 6011 ft 248 kts 91°
2026-04-30 18:29 52.32657 5.05609 8206 ft 260 kts 91°
2026-04-30 18:30 52.32753 5.11552 9919 ft 267 kts 91°
2026-04-30 18:30 52.33549 5.17742 10851 ft 310 kts 60°
2026-04-30 18:31 52.35111 5.20359 11078 ft 341 kts 39°
2026-04-30 18:31 52.39736 5.23073 12375 ft 366 kts
2026-04-30 18:32 52.44846 5.23652 13296 ft 373 kts
2026-04-30 18:32 52.47444 5.23890 13309 ft 373 kts
2026-04-30 18:32 52.52467 5.25498 13710 ft 367 kts 36°
2026-04-30 18:33 52.54363 5.28165 14520 ft 361 kts 53°
2026-04-30 18:33 52.56920 5.35223 16100 ft 361 kts 65°
2026-04-30 18:33 52.58083 5.38926 16810 ft 366 kts 66°
2026-04-30 18:34 52.59254 5.42682 17530 ft 371 kts 66°
2026-04-30 18:34 52.61637 5.50271 18936 ft 378 kts 65°
2026-04-30 18:34 52.62860 5.54134 19555 ft 382 kts 65°
2026-04-30 18:35 52.64102 5.58044 20175 ft 386 kts 65°
2026-04-30 18:35 52.65356 5.61985 20784 ft 390 kts 64°
2026-04-30 18:35 52.66609 5.65925 21375 ft 394 kts 64°
2026-04-30 18:36 52.69182 5.74022 22562 ft 401 kts 64°
2026-04-30 18:36 52.70468 5.78075 23134 ft 405 kts 64°
2026-04-30 18:36 52.73103 5.86410 24177 ft 413 kts 64°
2026-04-30 18:37 52.74435 5.90631 24667 ft 415 kts 64°
2026-04-30 18:37 52.75776 5.94888 25130 ft 418 kts 64°
2026-04-30 18:37 52.77122 5.99170 25584 ft 421 kts 64°
2026-04-30 18:37 52.78455 6.03420 26049 ft 423 kts 64°
2026-04-30 18:38 52.79810 6.07748 26573 ft 422 kts 64°
2026-04-30 18:38 52.81158 6.12057 27129 ft 421 kts 64°
2026-04-30 18:38 52.82500 6.16357 27692 ft 419 kts 64°
2026-04-30 18:38 52.83837 6.20648 28275 ft 418 kts 64°
2026-04-30 18:39 52.85164 6.24912 28862 ft 416 kts 64°
2026-04-30 18:39 52.86468 6.29115 29456 ft 413 kts 64°
2026-04-30 18:39 52.87781 6.33353 30059 ft 410 kts 63°
2026-04-30 18:39 52.89081 6.37554 30667 ft 408 kts 63°
2026-04-30 18:40 52.90370 6.41727 31188 ft 406 kts 63°
2026-04-30 18:40 52.91636 6.45836 31732 ft 403 kts 63°
2026-04-30 18:40 52.92912 6.49982 32289 ft 400 kts 63°
2026-04-30 18:40 52.94171 6.54081 32856 ft 397 kts 63°
2026-04-30 18:41 52.95407 6.58111 33358 ft 395 kts 63°
2026-04-30 18:41 52.97949 6.66420 33377 ft 409 kts 63°
2026-04-30 18:42 53.00538 6.74914 33387 ft 414 kts 63°
2026-04-30 18:42 53.04442 6.87779 33376 ft 417 kts 63°
2026-04-30 18:45 53.16534 7.33452 33400 ft 441 kts 71°
2026-04-30 18:45 53.17467 7.38345 33401 ft 441 kts 71°
2026-04-30 18:46 53.19373 7.48106 33401 ft 442 kts 71°
2026-04-30 18:46 53.21257 7.57789 33140 ft 441 kts 71°
2026-04-30 18:46 53.22194 7.62643 32878 ft 437 kts 71°
2026-04-30 18:47 53.23129 7.67482 32622 ft 438 kts 71°
2026-04-30 18:47 53.24064 7.72325 32374 ft 440 kts 71°
2026-04-30 18:47 53.25002 7.77192 32026 ft 439 kts 71°
2026-04-30 18:47 53.25936 7.82049 31438 ft 435 kts 71°
2026-04-30 18:48 53.26844 7.86789 30929 ft 431 kts 71°
2026-04-30 18:48 53.27753 7.91545 30412 ft 427 kts 71°
2026-04-30 18:48 53.28652 7.96256 29837 ft 422 kts 71°
2026-04-30 18:48 53.29523 8.00837 29329 ft 416 kts 71°
2026-04-30 18:49 53.30395 8.05432 28818 ft 410 kts 71°
2026-04-30 18:49 53.31254 8.09964 28311 ft 405 kts 71°
2026-04-30 18:49 53.32100 8.14438 27808 ft 401 kts 71°
2026-04-30 18:49 53.32964 8.18844 27364 ft 395 kts 69°
2026-04-30 18:50 53.33920 8.23112 27051 ft 387 kts 68°
2026-04-30 18:50 53.34892 8.27240 26593 ft 383 kts 68°
2026-04-30 18:50 53.35873 8.31387 26099 ft 381 kts 68°
2026-04-30 18:50 53.36838 8.35505 25621 ft 378 kts 68°
2026-04-30 18:51 53.37788 8.39608 25144 ft 376 kts 68°
2026-04-30 18:51 53.38726 8.43693 24667 ft 374 kts 68°
2026-04-30 18:51 53.39656 8.47764 24194 ft 372 kts 68°
2026-04-30 18:51 53.40581 8.51741 23666 ft 370 kts 67°
2026-04-30 18:52 53.41606 8.55690 23143 ft 367 kts 65°
2026-04-30 18:52 53.42663 8.59569 22670 ft 363 kts 65°
2026-04-30 18:52 53.43718 8.63410 22198 ft 360 kts 65°
2026-04-30 18:52 53.44761 8.67226 21719 ft 357 kts 65°
2026-04-30 18:53 53.45773 8.70964 21258 ft 354 kts 65°
2026-04-30 18:53 53.46788 8.74733 20794 ft 352 kts 65°
2026-04-30 18:53 53.47787 8.78466 20331 ft 349 kts 66°
2026-04-30 18:53 53.48778 8.82180 19883 ft 347 kts 66°
2026-04-30 18:54 53.49748 8.85819 19438 ft 344 kts 66°
2026-04-30 18:54 53.50725 8.89489 18994 ft 342 kts 66°
2026-04-30 18:54 53.51693 8.93135 18525 ft 340 kts 66°
2026-04-30 18:54 53.52667 8.96760 18014 ft 338 kts 64°
2026-04-30 18:55 53.53915 9.00047 17566 ft 336 kts 53°
2026-04-30 18:55 53.57303 9.05405 16646 ft 334 kts 38°
2026-04-30 18:55 53.59209 9.07662 16200 ft 332 kts 37°
2026-04-30 18:56 53.62965 9.12053 15321 ft 328 kts 37°
2026-04-30 18:56 53.64836 9.14260 14873 ft 327 kts 38°
2026-04-30 18:56 53.66697 9.16470 14428 ft 326 kts 38°
2026-04-30 18:57 53.70387 9.20878 13483 ft 323 kts 38°
2026-04-30 18:57 53.72194 9.23043 13034 ft 321 kts 38°
2026-04-30 18:57 53.74014 9.25227 12607 ft 318 kts 38°
2026-04-30 18:58 53.77554 9.29656 11730 ft 312 kts 48°
2026-04-30 18:58 53.78703 9.32654 11388 ft 306 kts 70°
2026-04-30 18:58 53.79104 9.36136 11152 ft 301 kts 90°
2026-04-30 18:59 53.78817 9.39606 10909 ft 295 kts 106°
2026-04-30 19:00 53.74362 9.46122 10144 ft 291 kts 173°
2026-04-30 19:00 53.72348 9.45813 9875 ft 292 kts 193°
2026-04-30 19:00 53.68587 9.43740 9344 ft 278 kts 175°
2026-04-30 19:01 53.64926 9.44988 8848 ft 266 kts 162°
2026-04-30 19:01 53.63132 9.45729 8591 ft 263 kts 162°
2026-04-30 19:02 53.59591 9.47169 8091 ft 259 kts 163°
2026-04-30 19:02 53.56138 9.48545 7588 ft 254 kts 163°
2026-04-30 19:03 53.52720 9.49894 7107 ft 250 kts 163°
2026-04-30 19:03 53.49356 9.49311 6593 ft 260 kts 212°
2026-04-30 19:04 53.46888 9.44897 6113 ft 259 kts 228°
2026-04-30 19:04 53.44617 9.40248 5604 ft 256 kts 227°
2026-04-30 19:05 53.42016 9.36455 5074 ft 244 kts 191°
2026-04-30 19:05 53.38857 9.37335 4582 ft 231 kts 160°
2026-04-30 19:06 53.35686 9.37327 4088 ft 234 kts 197°
2026-04-30 19:06 53.34254 9.36042 4013 ft 235 kts 216°
2026-04-30 19:06 53.31992 9.32101 3984 ft 233 kts 211°
2026-04-30 19:07 53.29149 9.32430 3992 ft 218 kts 133°
2026-04-30 19:07 53.28244 9.34450 4004 ft 218 kts 124°
2026-04-30 19:08 53.26502 9.38658 3987 ft 221 kts 124°
2026-04-30 19:08 53.24820 9.42943 3973 ft 222 kts 109°
2026-04-30 19:08 53.24811 9.45470 3995 ft 223 kts 70°
2026-04-30 19:09 53.27369 9.47866 3995 ft 234 kts 352°
2026-04-30 19:09 53.28951 9.47133 3999 ft 235 kts 351°
2026-04-30 19:09 53.30510 9.47406 3997 ft 228 kts 28°
2026-04-30 19:10 53.33537 9.48236 3995 ft 237 kts 334°
2026-04-30 19:10 53.36565 9.46173 4001 ft 236 kts 358°
2026-04-30 19:11 53.38176 9.46382 3994 ft 234 kts 18°
2026-04-30 19:11 53.41047 9.48781 3990 ft 230 kts 48°
2026-04-30 19:11 53.42143 9.50733 3963 ft 227 kts 57°
2026-04-30 19:12 53.42892 9.53020 3718 ft 230 kts 67°
2026-04-30 19:12 53.43520 9.55470 3456 ft 223 kts 69°
2026-04-30 19:12 53.44062 9.57756 3322 ft 208 kts 70°
2026-04-30 19:13 53.45172 9.62041 2785 ft 195 kts 68°
2026-04-30 19:13 53.46330 9.65921 2148 ft 174 kts 62°
2026-04-30 19:13 53.46923 9.67602 1922 ft 160 kts 62°
2026-04-30 19:14 53.47480 9.69189 1652 ft 161 kts 61°
2026-04-30 19:14 53.48091 9.70924 1411 ft 181 kts 61°
2026-04-30 19:14 53.48713 9.72642 1217 ft 165 kts 59°
2026-04-30 19:14 53.49323 9.74135 1081 ft 146 kts 56°
2026-04-30 19:15 53.49889 9.75469 887 ft 133 kts 55°
2026-04-30 19:15 53.51270 9.78147 2251 ft 152 kts 51°
2026-04-30 19:15 53.51780 9.79776 3191 ft 169 kts 74°
2026-04-30 19:16 53.52283 9.81756 3800 ft 201 kts 65°
2026-04-30 19:16 53.52960 9.83998 3985 ft 222 kts 64°
2026-04-30 19:16 53.53078 9.88124 3986 ft 226 kts 121°
2026-04-30 19:17 53.51888 9.89785 3999 ft 228 kts 160°
2026-04-30 19:17 53.49001 9.88175 4019 ft 236 kts 223°
2026-04-30 19:17 53.47838 9.86203 4009 ft 238 kts 224°
2026-04-30 19:18 53.45902 9.82892 4006 ft 240 kts 224°
2026-04-30 19:18 53.44355 9.80235 3998 ft 240 kts 224°
2026-04-30 19:18 53.43193 9.78233 3990 ft 238 kts 224°
2026-04-30 19:19 53.42049 9.76262 3989 ft 234 kts 224°
2026-04-30 19:19 53.40918 9.74307 3995 ft 233 kts 224°
2026-04-30 19:19 53.38661 9.70405 3995 ft 232 kts 224°